Date,TemperatureHighF,TemperatureAvgF,TemperatureLowF,DewpointHighF,DewpointAvgF,DewpointLowF,HumidityHigh,HumidityAvg,HumidityLow,PressureMaxIn,PressureMinIn,WindSpeedMaxMPH,WindSpeedAvgMPH,GustSpeedMaxMPH,PrecipitationSumIn
2013-5-1,58.6,48.9,41.2,50.5,39.6,30.9,99,73,37,30.27,30.09,14,4,27,0.01
2013-5-2,59.2,48.4,34.2,47.0,39.0,27.2,99,73,31,30.28,29.99,4,1,15,0.00
2013-5-3,55.8,50.5,42.6,54.8,49.7,42.4,99,97,85,29.99,29.63,11,3,21,0.20
2013-5-4,54.7,47.0,37.4,45.4,41.2,35.4,99,81,53,29.88,29.69,9,4,24,0.00
2013-5-5,66.4,56.1,48.0,57.8,51.8,45.3,99,86,64,30.02,29.87,8,3,18,0.00
2013-5-6,67.1,56.0,48.0,55.8,51.7,47.1,99,86,64,30.04,29.99,6,2,14,0.00
2013-5-7,64.9,53.8,41.5,51.9,46.8,41.3,99,79,53,30.07,29.86,8,2,15,0.00
2013-5-8,59.4,50.8,46.6,56.0,48.9,43.9,99,93,70,29.86,29.47,9,4,20,0.02
2013-5-9,56.8,49.5,42.6,47.4,43.7,37.6,99,83,50,29.52,29.33,8,2,15,0.09
2013-5-10,61.3,50.3,42.1,51.9,47.0,41.8,99,90,61,29.62,29.36,10,3,19,0.06
2013-5-11,54.3,47.8,41.7,52.4,45.7,41.5,99,93,77,29.72,29.46,12,4,27,0.02
2013-5-12,57.2,49.7,41.9,53.0,46.9,41.1,99,91,64,29.78,29.56,9,3,21,0.05
2013-5-13,52.7,44.6,34.9,47.3,41.7,34.6,99,90,71,29.61,29.41,11,4,26,0.17
2013-5-14,58.3,48.0,40.8,48.3,42.6,39.6,99,83,55,29.41,29.34,8,3,23,0.04
2013-5-15,53.6,44.9,36.5,51.8,42.3,36.2,99,91,65,29.41,29.28,11,1,17,0.12
2013-5-16,59.5,49.0,37.9,48.0,42.3,36.5,99,80,46,29.69,29.38,6,2,13,0.00
2013-5-17,68.5,52.5,41.2,50.7,42.9,38.4,99,73,40,29.86,29.69,4,1,11,0.00
2013-5-18,53.8,50.7,48.7,53.5,50.1,45.0,99,98,80,29.85,29.71,8,3,21,0.51
2013-5-19,64.2,51.6,47.1,62.2,51.2,46.9,99,99,89,29.96,29.80,5,1,14,0.02
2013-5-20,79.7,61.2,50.9,69.6,58.6,50.6,99,92,64,30.02,29.89,5,1,14,0.02
2013-5-21,68.4,56.0,46.0,61.8,50.8,45.8,99,84,58,30.08,30.01,4,1,11,0.01
2013-5-22,62.4,52.8,43.5,49.1,42.0,33.4,97,70,34,30.08,30.00,14,5,26,0.00
2013-5-23,54.5,46.5,40.3,43.3,36.2,33.7,88,68,49,30.01,29.91,11,6,24,0.00
2013-5-24,55.0,49.1,43.2,45.9,41.0,35.1,99,74,62,30.22,29.92,9,4,17,0.00
2013-5-25,70.0,56.3,36.7,50.7,42.6,36.1,99,65,34,30.22,30.11,6,2,14,0.00
2013-5-26,68.9,55.4,41.4,53.6,47.1,39.4,96,74,53,30.14,29.75,6,2,13,0.00
2013-5-27,58.5,52.6,48.2,49.5,47.3,42.6,95,83,69,29.74,29.43,6,2,19,0.00
2013-5-28,56.3,51.3,46.2,50.8,48.2,45.1,99,89,69,29.80,29.52,8,2,15,0.00
2013-5-29,67.8,56.1,43.7,57.1,50.7,43.4,99,83,60,29.92,29.79,4,1,10,0.00
2013-5-30,68.9,58.9,50.5,55.4,50.1,44.4,99,73,54,30.08,29.89,4,2,11,0.00
2013-5-31,72.5,58.8,46.6,59.5,52.3,46.3,99,82,49,30.09,30.06,9,2,17,0.00